[[{"header":{"parameterUnit":"m.s-1","parameterCategory":1,"la1":30.2992,"la2":30.254,"lo1":-89.0895,"lo2":-89.0443,"dy":0.0025,"dx":0.0025,"nx":19,"ny":19,"refTime":"2026-03-27T09:00:00:Z","depth":0,"parameterNumber":2,"parameterNumberName":"U-component_of_WINDS"},"data":[0,0,0,-0.2776,-0.2776,-0.2782,-0.2782,-0.2791,-0.2792,0,0,0,0,0,0,0,0,0,0,0,-0.2774,-0.2774,-0.2776,-0.2776,-0.2782,-0.2782,-0.2791,-0.2792,0,0,0,0,0,0,0,0,0,0,0,-0.2774,-0.2774,-0.2774,-0.2776,-0.2782,-0.2782,-0.2791,-0.2786,0,0,0,0,0,0,0,0,0,0,-0.278,-0.2778,-0.2774,-0.2774,-0.2776,-0.2782,-0.2782,-0.2786,-0.2787,-0.2789,0,-0.2791,0,-0.2791,-0.2792,-0.2792,0,0,0,-0.2776,-0.2778,-0.278,-0.2774,-0.2776,-0.2782,-0.2779,-0.2786,-0.2787,-0.279,-0.2791,-0.2791,-0.2791,-0.2792,-0.2792,-0.2805,-0.2805,0,0,-0.2775,-0.2775,-0.2779,-0.278,-0.2779,-0.2779,-0.278,-0.2787,-0.2788,-0.2791,-0.2791,-0.2791,-0.2792,-0.2792,-0.2805,-0.2805,0,0,0,-0.2775,-0.2775,-0.2777,-0.278,-0.2781,-0.2779,-0.278,-0.2788,-0.2788,-0.2791,-0.2792,-0.2792,-0.2792,-0.2805,-0.2805,-0.2809,0,0,0,-0.2774,-0.2775,-0.2776,-0.2776,-0.2781,-0.2784,-0.2781,-0.2788,-0.2788,-0.2792,-0.2792,-0.2793,-0.2805,-0.2805,-0.2808,-0.281,0,0,0,-0.2774,-0.2774,-0.2776,-0.2776,-0.2779,-0.2784,-0.2785,-0.2788,-0.2789,-0.2792,-0.2793,-0.2805,-0.2805,-0.2808,-0.281,-0.2814,0,0,0,-0.2773,-0.2778,-0.2776,-0.2782,-0.2779,-0.2786,-0.2785,-0.279,-0.2794,-0.2792,-0.2805,-0.2805,-0.2808,-0.2809,-0.2813,-0.2817,-0.2818,0,0,-0.2779,-0.2779,-0.2782,-0.278,-0.2788,-0.2785,-0.2793,-0.2796,-0.2797,-0.2802,-0.2803,-0.2808,-0.281,-0.2814,-0.2827,-0.2828,0,0,0,-0.2785,-0.2787,-0.2789,-0.2793,-0.2795,-0.2798,-0.28,-0.2801,-0.2806,-0.28,-0.2811,-0.2812,-0.2814,-0.2816,-0.2817,-0.2819,-0.2806,-0.2806,-0.2806,-0.2793,-0.2794,-0.28,-0.2802,-0.2805,-0.2808,-0.281,-0.2813,-0.2812,-0.2815,-0.2816,-0.2824,-0.2826,-0.2827,-0.2829,-0.2818,-0.2818,-0.2818,-0.2818,-0.2803,-0.2807,-0.2807,-0.2813,-0.2813,-0.2818,-0.2821,-0.2821,-0.2826,-0.2823,-0.2825,-0.2821,-0.2828,-0.283,-0.2819,-0.2818,-0.2818,-0.2818,-0.2818,-0.2809,-0.2811,-0.2813,-0.2818,-0.2822,-0.2824,-0.2829,-0.2829,-0.283,-0.2832,-0.2834,-0.2834,-0.2834,-0.2833,-0.2833,-0.2833,-0.2833,-0.2833,-0.2833,-0.2814,-0.2816,-0.282,-0.2824,-0.2827,-0.283,-0.2833,-0.2836,-0.2839,-0.2839,-0.2839,-0.2839,-0.2829,-0.2826,-0.2834,-0.2833,-0.2833,-0.2833,-0.2833,-0.2824,-0.2822,-0.2828,-0.2831,-0.2836,-0.284,-0.2841,-0.2847,-0.2849,-0.2852,-0.2851,-0.2844,-0.2843,-0.2842,-0.284,-0.2851,-0.2851,-0.2851,-0.2851,-0.2828,-0.2828,-0.2835,-0.284,-0.2844,-0.2846,-0.2854,-0.2857,-0.2859,-0.2861,-0.2859,-0.2857,-0.2856,-0.2856,-0.2855,-0.2853,-0.2866,-0.2867,-0.2867,-0.2835,-0.2835,-0.2841,-0.2844,-0.2848,-0.2852,-0.2859,-0.2865,-0.2867,-0.2867,-0.2862,-0.2861,-0.2857,-0.2856,-0.2855,-0.2853,-0.285,0,0]},{"header":{"parameterUnit":"m.s-1","parameterCategory":1,"la1":30.2992,"la2":30.254,"lo1":-89.0895,"lo2":-89.0443,"dy":0.0025,"dx":0.0025,"nx":19,"ny":19,"refTime":"2026-03-27T09:00:00:Z","depth":0,"parameterNumber":3,"parameterNumberName":"V-component_of_WINDS"},"data":[0,0,0,3.9176,3.9176,3.9175,3.9175,3.9184,3.9184,0,0,0,0,0,0,0,0,0,0,0,3.9183,3.9184,3.9176,3.9176,3.9175,3.9175,3.9184,3.9184,0,0,0,0,0,0,0,0,0,0,0,3.9183,3.9184,3.9184,3.9176,3.9175,3.9175,3.9184,3.9181,0,0,0,0,0,0,0,0,0,0,3.918,3.9194,3.9183,3.9184,3.9176,3.9175,3.9175,3.9181,3.9181,3.919,0,3.92,0,3.9193,3.9186,3.9186,0,0,0,3.917,3.9194,3.9187,3.9184,3.9176,3.9175,3.9174,3.9181,3.9181,3.9191,3.92,3.92,3.9193,3.9186,3.9186,3.9259,3.926,0,0,3.917,3.9186,3.9187,3.9188,3.919,3.9174,3.9174,3.9181,3.9192,3.92,3.92,3.9193,3.9186,3.9186,3.9259,3.926,0,0,0,3.9174,3.9187,3.918,3.9188,3.9187,3.9174,3.9174,3.9191,3.9188,3.92,3.9193,3.9186,3.9186,3.9258,3.9259,3.9307,0,0,0,3.9174,3.9189,3.918,3.919,3.9187,3.9189,3.9184,3.9187,3.9188,3.9193,3.9186,3.9187,3.9257,3.9259,3.9304,3.9326,0,0,0,3.9181,3.919,3.9192,3.9191,3.9191,3.9189,3.9185,3.9187,3.9184,3.9186,3.9187,3.9257,3.9258,3.9302,3.9322,3.9352,0,0,0,3.9192,3.9232,3.9193,3.9236,3.9191,3.9219,3.9185,3.9204,3.9212,3.9186,3.9257,3.9259,3.9301,3.9319,3.935,3.9381,3.9395,0,0,3.9252,3.924,3.9264,3.9229,3.9268,3.9218,3.9263,3.9253,3.9237,3.9253,3.9254,3.9305,3.9322,3.9352,3.9469,3.9481,0,0,0,3.9288,3.9305,3.9312,3.9322,3.9317,3.9315,3.9298,3.9295,3.9308,3.9249,3.9323,3.9332,3.9349,3.9363,3.9373,3.9387,3.9266,3.9266,3.9266,3.9394,3.9375,3.9414,3.9395,3.9405,3.9388,3.9394,3.9387,3.9362,3.938,3.9385,3.9459,3.9476,3.9483,3.9498,3.9399,3.9399,3.9399,3.9399,3.948,3.9502,3.9473,3.95,3.9479,3.9501,3.9488,3.947,3.9488,3.9453,3.9466,3.943,3.9497,3.9509,3.9403,3.9402,3.9402,3.9402,3.9401,3.9548,3.9555,3.9553,3.9568,3.9581,3.956,3.958,3.956,3.9541,3.9555,3.9558,3.9557,3.9555,3.9558,3.9558,3.9558,3.9559,3.9559,3.9559,3.9619,3.9615,3.9635,3.9637,3.9643,3.9647,3.9634,3.9638,3.9638,3.9621,3.9621,3.9596,3.9507,3.9485,3.9563,3.9562,3.9562,3.9561,3.9561,3.9713,3.969,3.9721,3.9727,3.973,3.9746,3.9721,3.9733,3.9733,3.9745,3.9717,3.9655,3.964,3.9632,3.9614,3.972,3.972,3.972,3.972,3.9771,3.9763,3.9793,3.9804,3.9813,3.9795,3.9832,3.9824,3.981,3.981,3.9791,3.9766,3.9759,3.9749,3.9738,3.9721,3.9852,3.9853,3.9853,3.9829,3.9822,3.9857,3.9847,3.9848,3.985,3.9885,3.9899,3.9879,3.9858,3.9809,3.9804,3.9763,3.975,3.9726,3.971,3.9679,0,0]}]]